User: anonymous   Login
Location: Unspecified
(0.0000°N, 0.0000°E)
Time: 09:24:05
(UTC+00:00)
Language:

PACE - Orbit

View from above orbital plane
View from above orbital plane
View from above satellite
View from above satellite

Ground track
Ground track

The orbit data is extracted from the following two-line orbital elements,

1 40022U 14033N   17086.73454123 +.00000473 +00000-0 +57391-4 0  9993
2 40022 097.9185 357.9727 0012629 209.9725 150.0770 14.88135598150360
Epoch (UTC): 27 March 2017 17:37:44
Eccentricity: 0.0012629
inclination: 97.9185°
perigee height: 595 km
apogee height: 612 km
right ascension of ascending node: 357.9727°
argument of perigee: 209.9725°
revolutions per day: 14.88135598
mean anomaly at epoch: 150.0770°
orbit number at epoch: 15036

The dashed part of the orbit path shows where the satellite is in the earth's shadow,  

DLR